Weather History for Glencoe, MN

Change the Weather History Date:

Monday, July 1, 2013

  Actual Average (KHCD) Record (KHCD)
Temperature  
Mean Temperature 72 °F -  
Max Temperature 84 °F 81 °F 97 °F (2011)
Min Temperature 61 °F 59 °F 45 °F (1969)
Cooling Degree Days 7    
Growing Degree Days 22 (Base 50)    
Moisture  
Dew Point 54 °F    
Average Humidity 55    
Maximum Humidity 79    
Minimum Humidity 27    
Precipitation  
Precipitation 0.00 in - - ()
Sea Level Pressure  
Sea Level Pressure 30.17 in    
Wind  
Wind Speed 3 mph (North)    
Max Wind Speed 6 mph    
Max Gust Speed -    
Visibility 10 miles    
Events      
Averages and records for this station are not official NWS values.
T = Trace of Precipitation, MM = Missing Value Source: NWS Daily Summary

Daily Weather History Graph

Daily Weather History Graph

Search for Another Location

Airport:

Trip Planner

Search our weather history database for the weather conditions in past years. The results will help you decide how hot, cold, wet, or windy it might be!

Date:

Astronomy

Jul. 01, 2013 Rise Set
Actual Time 5:34 AM CDT 9:05 PM CDT
Civil Twilight 4:57 AM CDT 9:42 PM CDT
Nautical Twilight 4:09 AM CDT 10:31 PM CDT
Astronomical Twilight 3:05 AM CDT 11:34 PM CDT
Moon 1:14 AM CDT (7/1) 3:13 PM CDT (7/1)
Length of Visible Light 16h 44m
Length of Day
15h 31m
Waning Crescent, 35% of the Moon is Illuminated
Jul 1
Waning Crescent
Jul 8
New
Jul 15
First Quarter
Jul 22
Full
Jul 29
Last Quarter

Hourly Weather History & Observations

Time (CDT) Temp. Dew Point Humidity Pressure Visibility Wind Dir Wind Speed Gust Speed Precip Events Conditions
12:14 AM 64.2 °F 57.0 °F 77% 30.13 in 10.0 mi NW 4.6 mph - N/A   Clear
12:35 AM 64.4 °F 56.5 °F 75% 30.14 in 10.0 mi NW 4.6 mph - N/A   Clear
12:55 AM 64.4 °F 56.5 °F 75% 30.14 in 10.0 mi NW 4.6 mph - N/A   Clear
1:14 AM 64.0 °F 56.3 °F 76% 30.14 in 10.0 mi NW 3.5 mph - N/A   Clear
1:34 AM 63.7 °F 55.6 °F 75% 30.14 in 10.0 mi NW 3.5 mph - N/A   Clear
1:55 AM 64.2 °F 55.6 °F 73% 30.14 in 10.0 mi NNW 3.5 mph - N/A   Clear
2:14 AM 63.9 °F 55.8 °F 75% 30.14 in 10.0 mi NW 3.5 mph - N/A   Clear
2:34 AM 62.4 °F 55.8 °F 79% 30.14 in 10.0 mi NW 3.5 mph - N/A   Clear
2:55 AM 62.2 °F 55.6 °F 79% 30.14 in 10.0 mi NW 3.5 mph - N/A   Clear
3:14 AM 61.9 °F 55.4 °F 79% 30.14 in 10.0 mi NW 3.5 mph - N/A   Scattered Clouds
3:34 AM 62.4 °F 55.2 °F 77% 30.15 in 10.0 mi NW 3.5 mph - N/A   Scattered Clouds
3:55 AM 61.9 °F 55.2 °F 79% 30.15 in 10.0 mi NW 3.5 mph - N/A   Clear
4:15 AM 61.5 °F 54.7 °F 78% 30.15 in 10.0 mi NNW 3.5 mph - N/A   Clear
4:35 AM 62.2 °F 54.5 °F 76% 30.15 in 10.0 mi NW 3.5 mph - N/A   Clear
4:54 AM 61.9 °F 54.0 °F 75% 30.15 in 10.0 mi Calm Calm - N/A   Clear
5:14 AM 61.2 °F 53.6 °F 76% 30.16 in 10.0 mi NNW 4.6 mph - N/A   Clear
5:35 AM 61.0 °F 53.8 °F 77% 30.17 in 10.0 mi Calm Calm - N/A   Scattered Clouds
5:55 AM 61.3 °F 54.0 °F 77% 30.17 in 10.0 mi Calm Calm - N/A   Scattered Clouds
6:14 AM 61.0 °F 54.0 °F 78% 30.17 in 10.0 mi NNW 3.5 mph - N/A   Scattered Clouds
6:34 AM 61.0 °F 54.5 °F 79% 30.18 in 10.0 mi Calm Calm - N/A   Scattered Clouds
6:55 AM 62.4 °F 54.9 °F 76% 30.18 in 10.0 mi NNW 3.5 mph - N/A   Clear
7:14 AM 63.7 °F 55.9 °F 76% 30.18 in 10.0 mi NNW 3.5 mph - N/A   Clear
7:34 AM 64.6 °F 57.0 °F 76% 30.18 in 10.0 mi NNW 3.5 mph - N/A   Clear
7:55 AM 66.2 °F 57.7 °F 74% 30.19 in 10.0 mi NNW 3.5 mph - N/A   Clear
8:15 AM 67.8 °F 58.3 °F 71% 30.19 in 10.0 mi NNW 4.6 mph - N/A   Clear
8:34 AM 68.9 °F 58.5 °F 69% 30.19 in 10.0 mi NE 3.5 mph - N/A   Clear
8:54 AM 70.5 °F 58.6 °F 66% 30.19 in 10.0 mi Calm Calm - N/A   Clear
9:15 AM 71.6 °F 58.3 °F 63% 30.20 in 10.0 mi Calm Calm - N/A   Clear
9:34 AM 73.2 °F 59.2 °F 61% 30.20 in 10.0 mi Calm Calm - N/A   Clear
9:54 AM 75.0 °F 58.1 °F 56% 30.20 in 10.0 mi Calm Calm - N/A   Clear
10:15 AM 75.7 °F 56.3 °F 51% 30.19 in 10.0 mi Calm Calm - N/A   Clear
10:34 AM 76.6 °F 58.3 °F 53% 30.19 in 10.0 mi NNE 3.5 mph - N/A   Clear
10:55 AM 77.7 °F 57.2 °F 49% 30.20 in 10.0 mi North 4.6 mph - N/A   Clear
11:14 AM 78.3 °F 54.9 °F 44% 30.20 in 10.0 mi Calm Calm - N/A   Clear
11:35 AM 79.2 °F 51.1 °F 37% 30.20 in 10.0 mi North 3.5 mph - N/A   Clear
11:55 AM 79.9 °F 53.6 °F 40% 30.20 in 10.0 mi NE 4.6 mph - N/A   Clear
12:14 PM 80.6 °F 51.3 °F 36% 30.20 in 10.0 mi NNE 3.5 mph - N/A   Clear
12:35 PM 81.0 °F 49.5 °F 33% 30.19 in 10.0 mi Calm Calm - N/A   Clear
12:54 PM 82.0 °F 50.5 °F 33% 30.19 in 10.0 mi East 5.8 mph - N/A   Clear
1:15 PM 82.0 °F 49.8 °F 32% 30.18 in 10.0 mi NNW 3.5 mph - N/A   Clear
1:35 PM 82.2 °F 46.0 °F 28% 30.18 in 10.0 mi NE 4.6 mph - N/A   Clear
1:54 PM 82.4 °F 47.1 °F 29% 30.18 in 10.0 mi NNE 4.6 mph - N/A   Scattered Clouds
2:15 PM 81.5 °F 47.7 °F 31% 30.17 in 10.0 mi NNE 4.6 mph - N/A   Mostly Cloudy
2:35 PM 83.5 °F 50.0 °F 31% 30.17 in 10.0 mi NNW 5.8 mph - N/A   Scattered Clouds
2:55 PM 80.6 °F 50.0 °F 34% 30.17 in 10.0 mi North 3.5 mph - N/A   Mostly Cloudy
3:14 PM 82.8 °F 47.7 °F 29% 30.16 in 10.0 mi Calm Calm - N/A   Scattered Clouds
3:34 PM 83.5 °F 47.5 °F 28% 30.16 in 10.0 mi North 3.5 mph - N/A   Scattered Clouds
3:55 PM 83.5 °F 48.4 °F 29% 30.16 in 10.0 mi NNW 3.5 mph - N/A   Scattered Clouds
4:14 PM 83.5 °F 46.6 °F 27% 30.16 in 10.0 mi NNE 3.5 mph - N/A   Clear
4:34 PM 81.3 °F 50.7 °F 34% 30.15 in 10.0 mi NE 3.5 mph - N/A   Scattered Clouds
4:55 PM 82.4 °F 49.8 °F 32% 30.15 in 10.0 mi NNE 3.5 mph - N/A   Clear
5:14 PM 81.3 °F 51.8 °F 36% 30.15 in 10.0 mi ENE 4.6 mph - N/A   Mostly Cloudy
5:34 PM 80.2 °F 52.3 °F 38% 30.15 in 10.0 mi NNE 3.5 mph - N/A   Mostly Cloudy
5:54 PM 81.0 °F 52.3 °F 37% 30.15 in 10.0 mi NE 3.5 mph - N/A   Mostly Cloudy
6:15 PM 79.0 °F 53.8 °F 42% 30.15 in 10.0 mi Calm Calm - N/A   Mostly Cloudy
6:34 PM 79.2 °F 54.9 °F 43% 30.15 in 10.0 mi Calm Calm - N/A   Scattered Clouds
6:55 PM 80.1 °F 52.7 °F 39% 30.15 in 10.0 mi NE 3.5 mph - N/A   Clear
7:15 PM 79.7 °F 52.9 °F 39% 30.15 in 10.0 mi Calm Calm - N/A   Clear
7:34 PM 79.0 °F 53.4 °F 41% 30.15 in 10.0 mi NNE 3.5 mph - N/A   Clear
7:55 PM 77.9 °F 54.5 °F 44% 30.15 in 10.0 mi Calm Calm - N/A   Clear
8:14 PM 77.2 °F 54.3 °F 45% 30.16 in 10.0 mi Calm Calm - N/A   Clear
8:34 PM 76.3 °F 53.2 °F 45% 30.16 in 10.0 mi Calm Calm - N/A   Clear
8:55 PM 75.0 °F 53.6 °F 47% 30.15 in 10.0 mi Calm Calm - N/A   Clear
9:15 PM 73.9 °F 53.8 °F 49% 30.15 in 10.0 mi Calm Calm - N/A   Clear
9:34 PM 73.6 °F 53.2 °F 49% 30.16 in 10.0 mi Calm Calm - N/A   Clear
9:55 PM 72.5 °F 53.1 °F 50% 30.16 in 10.0 mi NNE 3.5 mph - N/A   Clear
10:14 PM 72.5 °F 52.5 °F 49% 30.16 in 10.0 mi Calm Calm - N/A   Clear
10:35 PM 71.8 °F 52.9 °F 51% 30.16 in 10.0 mi Calm Calm - N/A   Clear
10:55 PM 71.2 °F 53.2 °F 53% 30.16 in 10.0 mi Calm Calm - N/A   Clear
11:14 PM 70.5 °F 54.1 °F 56% 30.16 in 10.0 mi Calm Calm - N/A   Clear
11:35 PM 69.6 °F 53.4 °F 56% 30.16 in 10.0 mi Calm Calm - N/A   Clear
11:54 PM 68.5 °F 54.9 °F 62% 30.16 in 10.0 mi North 3.5 mph - N/A   Clear